Preview of NWS' New Version of Forecast
This preview is not operational and should not be used for support decisions.

Regional Weather Roundup (RWR)

Issued by National Weather Service (NWS)

                            
000
ASUS42 KTBW 162318
RWRFL 
FLORIDA REGIONAL WEATHER ROUNDUP
NATIONAL WEATHER SERVICE TAMPA BAY RUSKIN FL
700 PM EDT MON SEP 16 2019

NOTE: "FAIR" INDICATES FEW OR NO CLOUDS BELOW 12,000 FEET WITH NO
SIGNIFICANT WEATHER AND/OR OBSTRUCTIONS TO VISIBILITY.

FLZ001>010-012>015-112-114-115-170000-
PANHANDLE FLORIDA
  
CITY           SKY/WX    TMP DP  RH WIND       PRES   REMARKS
PENSACOLA      NOT AVBL                                               
PENSACOLA NAS  PTSUNNY   84  77  79 SW7       29.97F                  
MILTON NAS     FAIR      85  74  69 SW3       29.98S                  
CRESTVIEW      FAIR      86  71  60 W7        29.99R                  
DUKE FIELD     FAIR      87  73  63 W6        29.97S                  
VALPARAISO     FAIR      86  73  63 SW3       29.97S                  
MARY ESTHER    PTSUNNY   85  76  74 W7        29.97R                  
TRI COUNTY     FAIR      93  62  35 NE5       29.97R                  
PANAMA CITY    FAIR      86  74  67 SW9       29.96S                  
TYNDALL AFB    FAIR      86  74  67 W10       29.96S                  
APALACHICOLA   FAIR      84  73  69 W8        29.97S                  

STATION/POSITION SKY/WX   TEMP    WIND        PRES    WAVE   SWELL
                          AIR SEA DIR/SP/G            HT/PER HT/PER
                          (F)     (DEG/KT/KT) (MB)    (FT/S) (FT/S)
30.1N   87.6W              84 86  120/  2/  2 1015.3F   1/ 5   2/ 5
29.2N   88.2W              84     120/  8/ 10 1015.5S   2/ 5   2/ 5
28.8N   86.0W                 86  140/  2/  4 1015.2F   1/ 5   2/ 5
PANAMA CITY BEAC           84 87  270/ 10/ 11 1015.5S
TOWER C                    83     280/  5/  6 1015.2S
28.5N   84.5W              83     350/  6/  8 1015.5S   1/ 4

$$
FLZ011-016>038-118-127-128-134-139-239-170000-
NORTH FLORIDA
  
CITY           SKY/WX    TMP DP  RH WIND       PRES   REMARKS
MARIANNA       FAIR      93  63  36 NE8       29.95S                  
TALLAHASSEE    FAIR      94  65  38 N6        29.95R HX  96           
PERRY          FAIR      89  70  53 CALM      29.96R                  
LIVE OAK       CLEAR     90  68  48 CALM      29.94R                  
CROSS CITY       N/A     86  74  68 NW5       29.95R                  
LAKE CITY      FAIR      88  66  48 N5        29.94S                  
GAINESVILLE    FAIR      88  70  55 CALM      29.96R                  
WILLISTON      FAIR      88  69  52 N7        29.94R                  
PALATKA        FAIR      82  66  57 E6        29.95R                  
MAYPORT NAS    FAIR      84  70  62 NE7       29.94S                  
JACKSONVILLE   FAIR      84  71  65 E7        29.93S                  
JAX NAS        FAIR      87  69  54 E9        29.94S                  
JAX CECIL      CLEAR     88  70  55 E8        29.93S                  
FERNANDINA BEA FAIR      84  70  63 E3        29.93S                  
ST AUGUSTINE   FAIR      84  32  15 N9        29.95S                  
PALM COAST     CLEAR     82  72  69 N7        29.94S                  

STATION/POSITION SKY/WX   TEMP    WIND        PRES    WAVE   SWELL
                          AIR SEA DIR/SP/G            HT/PER HT/PER
                          (F)     (DEG/KT/KT) (MB)    (FT/S) (FT/S)
SHELL POINT      NOT AVBL
KEATON BEACH               85     280/  6/  8 1014.3F
CEDAR KEY                  86     300/  9/ 13 1013.9F
FERNANDINA                         60/  2/  7   N/A
30.7N   81.3W                 83                N/A     5/10   2/11
MAYPORT                            50/  8/ 11   N/A
31.4N   80.9W              84 83   70/  6/  8 1013.1S   5/ 9   5/ 9
ST AUGUSTINE               82 84  360/ 12/ 13 1014.1R

$$
FLZ040-043>046-052-053-057-058-063-144-170000-
INTERIOR CENTRAL FLORIDA
  
CITY           SKY/WX    TMP DP  RH WIND       PRES   REMARKS
OCALA          FAIR      89  69  51 VRB5      29.94S                  
LEESBURG       FAIR      90  70  51 N10       29.94R HX  95           
SANFORD        FAIR      85  72  65 NE14      29.93R                  
ORLANDO EXEC   FAIR      86  73  65 NE10      29.93R                  
ORLANDO INTL   FAIR      86  73  65 NE13      29.92R                  
KISSIMMEE      RAIN      85  75  72 VRB3      29.93R                  
WINTER HAVEN   FAIR      91  73  55 N8        29.92S HX  99           
LAKELAND       PTCLDY    88  73  62 NW7       29.93R HX  96           
BARTOW         FAIR      91  72  52 N7        29.91R HX  98           
SEBRING        FAIR      88  73  60 N7        29.91R HX  95           
OKEECHOBEE     FAIR      82  73  74 NE5       29.90R                  

$$
FLZ041-047-054-059-064-141-147-170000-
EAST CENTRAL FLORIDA
  
CITY           SKY/WX    TMP DP  RH WIND       PRES   REMARKS
ORMOND BEACH   PTCLDY    82  75  78 N13G18    29.94S                  
DAYTONA BEACH  FAIR      83  73  72 N10       29.93S                  
DELAND         FAIR      82  72  69 N9        29.94R                  
NEW SMYRNA BEA CLEAR     82  73  74 N9G21     29.94S                  
TITUSVILLE     PTCLDY    88  75  66 N17G23    29.93R HX  97           
CAPE CANAVERAL FAIR      83  80  88 N17G24    29.90R HX  96           
PATRICK AFB    FAIR      84  78  81 N16       29.91R                  
MELBOURNE      FAIR      85  74  69 N18       29.91R                  
VERO BEACH     FAIR      84  75  74 N14       29.91R                  
FT PIERCE      FAIR      84  73  69 N10G22    29.91R                  
STUART         PTCLDY    84  75  74 N9G18     29.92R                  

STATION/POSITION SKY/WX   TEMP    WIND        PRES    WAVE   SWELL
                          AIR SEA DIR/SP/G            HT/PER HT/PER
                          (F)     (DEG/KT/KT) (MB)    (FT/S) (FT/S)
28.5N   80.2W              83 85  330/ 21/ 27 1012.5F
28.9N   78.5W              81 81  310/ 14/ 19 1010.7R  12/11  10/11
TRIDENT PIER               83 84  340/ 10/ 18 1014.2S
28.4N   80.5W                 83                N/A     4/11   2/11
27.5N   80.2W                 83                N/A     6/11   3/11

$$
FLZ050-056-061-142-242-148-248-149-249-151-251-155-255-
160-260-170000-
WEST CENTRAL FLORIDA
  
CITY           SKY/WX    TMP DP  RH WIND       PRES   REMARKS
CRYSTAL RIVER  FAIR      86  73  66 W7        29.94S                  
INVERNESS      FAIR      86  72  62 N3        29.94R                  
BROOKSVILLE    FAIR      86  73  65 W13       29.94S                  
CLEARWATER AIR FAIR      82  73  74 NW9       29.94S                  
ST PETE CLEARW FAIR      86  73  65 NW13      29.93S                  
TAMPA INTL     FAIR      89  73  59 NW12      29.94R HX  97           
TAMPA EXEC     FAIR      86  77  74 NW7       29.93S HX  97           
PLANT CITY     FAIR      86  77  74 NW7       29.95R HX  97           
MACDILL AFB    FAIR      85  74  68 N9G17     29.93S                  
PETER O KNIGHT MOCLDY    88  75  66 NW8       29.93S HX  97           
ST PETERSBURG  FAIR      86  73  65 NW9       29.91S                  
SARASOTA       FAIR      87  74  64 NW14      29.92R HX  95           
VENICE         FAIR      86  77  74 NW13G21   29.93S HX  97           

STATION/POSITION SKY/WX   TEMP    WIND        PRES    WAVE   SWELL
                          AIR SEA DIR/SP/G            HT/PER HT/PER
                          (F)     (DEG/KT/KT) (MB)    (FT/S) (FT/S)
27.3N   84.2W                 86                N/A     1/ 4
CLEARWATER BEACH           85 87  310/ 12/ 14 1014.1F
MIDDLE TAMPA BAY                  320/ 12/ 14   N/A
VENICE                     84 86  310/ 15/ 18 1013.5R

$$
FLZ066-069-070-075>078-162-262-165-265-170000-
SOUTHWEST FLORIDA AND KEYS
  
CITY           SKY/WX    TMP DP  RH WIND       PRES   REMARKS
PUNTA GORDA    FAIR      87  75  67 W10       29.93R HX  96           
FT MYERS       FAIR      86  72  62 W13       29.91S                  
SOUTHWEST INTL FAIR      86  74  67 NW7       29.92R                  
NAPLES         FAIR      87  75  67 NW13      29.92S HX  96           
MARCO ISLAND   FAIR      86  75  69 NW9       29.93S HX  95           
IMMOKALEE      FAIR      84  73  70 VRB7G16   29.89S                  
MARATHON       MOCLDY    86  77  74 NW7       29.92S HX  97           
KEY WEST NAS   FAIR      88  76  67 NW13      29.93S HX  99           
KEY WEST INTL  FAIR      88  79  74 NW14      29.93S HX 103           

STATION/POSITION SKY/WX   TEMP    WIND        PRES    WAVE   SWELL
                          AIR SEA DIR/SP/G            HT/PER HT/PER
                          (F)     (DEG/KT/KT) (MB)    (FT/S) (FT/S)
NAPLES                            310/ 12/ 15   N/A
26.0N   85.6W              86 88  300/  6/  8 1014.4F   2/ 6   2/ 6
DRY TORTUGAS               85     330/ 11/ 12 1014.3R
SAND KEY                   86     320/ 12/ 14 1012.6S
SOMBRERO KEY               85     310/ 12/ 14 1013.5F
LONG KEY                   86                 1012.2S

$$
FLZ067-068-071>074-168-172>174-170000-
SOUTHEAST FLORIDA 
  
CITY           SKY/WX    TMP DP  RH WIND       PRES   REMARKS
W PALM BEACH   MOCLDY    85  75  72 N13       29.91R                  
BOCA RATON     PTCLDY    86  77  74 NE14      29.89S HX  97           
FT LAUDER-EXEC FAIR      87  76  69 NE10      29.89R HX  97           
FT LAUDERDALE  MOCLDY    86  77  74 NE12      29.88S HX  97           
POMPANO BEACH  FAIR      87  75  67 NE13      29.89R HX  96           
PEMBROKE PINES FAIR      91  73  55 NW7       29.90S HX  99           
OPA LOCKA      FAIR      90  73  57 NW7       29.89S HX  98           
MIAMI          FAIR      92  69  47 NW7       29.89S HX  97           
WEST KENDALL   FAIR      91  73  55 NW12      29.88S HX  99           
HOMESTEAD      FAIR      87  76  70 W9        29.88S HX  97           

STATION/POSITION SKY/WX   TEMP    WIND        PRES    WAVE   SWELL
                          AIR SEA DIR/SP/G            HT/PER HT/PER
                          (F)     (DEG/KT/KT) (MB)    (FT/S) (FT/S)
VIRGINIA KEY               93 88  290/  5/ 10 1011.5F
LAKE WORTH                 84 86   10/ 15/ 17 1013.6R
FOWEY ROCKS                89 86  330/ 10/ 10 1012.2S
SETTLEMENT